Location: Eldton
(37.7260°N, 122.4494°W)
Time: 15:28:17
(UTC+00:00)

Daily predictions for brighter satellites

Satellite Brightness Start Highest point End
(mag) Time Altitude Azimuth Time Altitude Azimuth Time Altitude Azimuth
Cosmos 1634 Rocket 4.4 12:24:45 33° NNE 12:27:31 58° E 12:33:37 10° SSE
DELTA 2 R/B (1) 3.7 12:41:22 67° NE 12:41:22 67° NE 12:46:15 10° ENE
Okean 3 Rocket 4.5 12:38:03 10° SSE 12:42:24 48° E 12:46:47 10° NNE
Cosmos 2369 Rocket 3.8 12:49:40 21° N 12:49:40 21° N 12:51:31 10° NNE
Meteor 2-13 Rocket 4.2 12:40:37 10° S 12:46:42 80° W 12:52:49 10° N
MOS 1-B Rocket 4.5 12:41:27 10° SSE 12:47:34 57° ENE 12:52:15 15° N
CZ-2C R/B 3.6 12:54:41 10° SE 12:59:54 47° ENE 13:05:01 10° N
COSMO-SKYMED 1 3.7 12:59:42 10° SE 13:03:48 43° ENE 13:06:59 16° N
Cosmos 836 Rocket 4.3 13:07:17 59° NW 13:08:13 77° WSW 13:13:24 10° SSE
Cosmos 1408 Rocket 4.3 13:07:54 10° S 13:12:04 52° E 13:16:15 10° NNE
DNEPR-1 R/B 4.0 13:14:23 43° NNW 13:16:11 88° WSW 13:22:17 10° SSE
FALCON 9 R/B 4.4 13:04:13 29° W 13:20:15 74° SSW 13:28:08 10° ESE
Cosmos 1503 Rocket 4.1 13:21:03 41° WSW 13:22:21 50° WNW 13:27:33 10° N
Cosmos 1777 Rocket 4.0 13:22:37 10° SSW 13:27:49 80° ESE 13:33:04 10° NNE
SJ 16-02 1.5 13:24:38 10° S 13:28:59 73° ESE 13:33:21 10° NNE
Cosmos 1812 4.4 13:33:41 19° SW 13:33:41 19° SW 13:35:03 10° SSW
Cosmos 773 Rocket 4.3 13:28:03 11° NNW 13:32:59 66° ENE 13:38:05 10° SSE
SAR-Lupe-3 4.4 13:29:58 10° N 13:33:34 70° WNW 13:37:08 10° SSW
CZ-2C R/B 4.3 13:30:27 10° NNE 13:35:12 43° E 13:40:11 10° S
Cosmos 1515 Rocket 3.8 13:31:08 10° N 13:35:29 68° E 13:39:46 10° SSE
SJ-12 4.1 13:33:55 10° N 13:37:54 46° WNW 13:41:51 10° SSW
BREEZE-M DEB (TANK) 4.2 13:28:25 20° NW 13:40:11 62° SW 13:45:16 10° SSE
CENTAUR R/B 4.4 13:41:03 13° NNW 13:41:32 13° NNW 13:44:35 10° N
Cosmos 1340 Rocket 3.1 13:39:40 10° S 13:43:34 68° E 13:47:33 10° NNE
CZ-4B R/B 4.1 13:41:00 10° NNE 13:44:21 38° E 13:47:47 10° S
ATLAS 5 CENTAUR R/B 1.5 13:44:49 32° WSW 13:46:05 45° NW 13:50:04 10° NNE
Envisat 3.3 13:45:01 10° N 13:49:48 42° WNW 13:54:33 10° SW
Cosmos 1500 Rocket 3.7 13:45:41 10° S 13:50:07 81° E 13:54:37 10° N
Cosmos 2279 Rocket 4.2 13:45:53 10° NNW 13:51:44 46° W 13:57:35 10° SSW
SKYMED 2 3.7 13:47:36 10° S 13:51:49 51° W 13:55:36 13° NNW
Cosmos 1174 4.0 13:54:04 30° NW 13:54:04 30° NW 13:56:22 10° N
Nadezhda 4 Rocket 3.9 13:50:42 10° SSW 13:56:50 72° W 14:03:04 10° N
Cosmos 1151 Rocket 4.3 14:00:43 21° W 14:00:48 21° W 14:04:02 10° SW
H-2A R/B 4.3 14:03:08 17° WSW 14:03:08 17° WSW 14:04:31 10° WSW
Cosmos 1805 Rocket 4.1 13:58:15 10° S 14:02:34 62° E 14:06:53 10° NNE
Meteor 2-15 4.5 13:56:49 10° NNW 14:02:44 57° W 14:08:37 10° S
H-2A R/B 3.4 13:58:54 10° SE 14:02:53 40° ENE 14:06:59 10° N
COSMOS 2487 3.5 14:00:22 10° N 14:03:34 42° ENE 14:06:45 10° SE
Lacrosse 5 3.6 14:01:42 10° S 14:06:19 36° ESE 14:10:56 10° ENE
CZ-4C R/B 2.7 14:03:34 10° S 14:06:38 56° W 14:09:42 10° NNW
BREEZE-M DEB (TANK) 3.8 13:53:19 10° WSW 14:07:28 54° NW 14:11:17 10° NE
Meteor 1-31 Rocket 3.7 14:05:24 10° NNW 14:08:42 27° WNW 14:12:00 10° SW
Meteor 1-27 Rocket 3.7 14:04:17 10° NNW 14:09:57 72° W 14:15:43 10° S
Alouette 2 Rocket 3.6 14:07:18 10° N 14:10:50 66° E 14:14:40 10° SSE
ATLAS 3B R/B 2.7 14:04:46 10° SW 14:11:08 57° NW 14:17:49 10° NNE
SL-4 R/B 1.5 14:10:25 10° SW 14:13:53 79° NW 14:17:34 10° NE
Cosmos 1939 Rocket 3.1 14:10:08 10° NNE 14:14:01 68° ESE 14:17:50 10° S
Cosmos 1092 Rocket 4.0 14:09:41 10° S 14:15:56 88° W 14:22:17 10° N
NOSS 2 (A) 3.9 14:20:47 12° NNW 14:23:04 89° W 14:25:26 10° SSE
Okean 1 4.3 14:20:15 10° N 14:24:06 49° E 14:27:54 10° SSE
SMAP 3.3 14:21:58 10° NNE 14:26:39 76° ESE 14:31:17 10° S
DELTA 2 R/B (1) 3.6 14:22:09 12° WNW 14:27:19 79° N 14:32:53 10° E
SL-8 R/B 4.2 14:24:32 12° WNW 14:28:45 47° SW 14:33:18 10° SSE
Meteor 1-25 Rocket 4.2 14:25:14 10° SSW 14:30:48 67° W 14:36:22 10° N
Cosmos 2297 Rocket 3.6 14:25:44 10° N 14:30:59 37° ENE 14:36:11 10° SE
Cosmos 1602 4.1 14:34:22 10° SSW 14:37:58 41° W 14:41:36 10° N
USA 215 3.5 14:31:43 10° SE 14:38:13 75° NE 14:44:45 10° NW
COSMO-SKYMED 1 4.3 14:37:42 10° SW 14:40:08 15° W 14:42:35 10° WNW
CZ-2C R/B 4.0 14:36:24 10° SW 14:40:21 20° W 14:44:16 10° NW
NOAA 12 4.2 14:35:40 10° N 14:40:47 54° WNW 14:45:51 10° SSW
SL-27 R/B 4.1 14:39:07 10° WNW 14:41:28 17° W 14:43:47 10° SW
Cosmos 1633 Rocket 3.8 14:39:16 10° S 14:43:31 59° E 14:47:48 10° NNE
OAO 2 Rocket 4.1 14:41:02 10° WSW 14:46:05 53° SSE 14:51:01 10° E
Meteor 2-14 Rocket 4.5 14:41:54 10° SSW 14:48:00 67° W 14:54:08 10° N
CZ-3 R/B 3.2 14:43:04 10° WSW 14:51:49 29° S 14:55:43 10° ESE
